Location: Karcze
(52.0945°N, 22.4786°E)
Time: 12:41:51
(UTC+00:00)

COBE Rocket - Pass Details

Date: 14 July 2020
Orbit: 679 x 783 km, 97.1° (Epoch: 07 August)

Event Time Altitude Azimuth Distance (km) Brightness Sun altitude
Exits shadow 00:44:23 - 163° (SSE) 2,880 6.6 -11.1°
Reaches altitude 10° 00:45:54 10° 163° (SSE) 2,270 6.1 -11.0°
Maximum altitude 00:50:54 85° 77° (ENE) 746 4.0 -10.6°
Drops below altitude 10° 00:55:48 10° 348° (NNW) 2,219 7.1 -10.2°
Sets 00:58:03 0° 348° (NNW) 3,128 7.9 -10.0°
